Date String (YYYY-MM-DD hh:mm:ss) UTC,Instrument flags,Ambient pressure (hPa),Sample flow (lpm),Bypass flow (lpm),Sample temperature (°C),Ambient temperature (°C),ASC tube jacket temperature (°C),LED temperature (°C),Box temperature (°C),Sample RH (%),Span deviation,Mass concentration (μg/m³),Mass concentration (μg/m³),Mass concentration (μg/m³)
DateTimeUTC,F1_M11,P_M11,Q1_M11,Q2_M11,T1_M11,T2_M11,T3_M11,T4_M11,T5_M11,U1_M11,ZSPAN_M11,X2_M11,X0_M11,X1_M11
2023-02-27 20:00:00,,0816.1,4.99,0.00,22.3,20.7,00.0,31.1,23.9,09.6,0000.0,0000.41,0002.19,0000.21
2023-02-27 20:01:00,,0816.0,5.00,0.00,22.3,20.6,00.0,31.1,23.8,09.7,0000.0,0000.41,0002.47,0000.21
2023-02-27 20:02:00,,0815.9,5.00,0.00,22.2,20.6,00.0,31.1,23.8,10.2,0000.0,0000.41,0002.46,0000.21
2023-02-27 20:03:00,,0815.9,5.00,0.00,22.2,20.6,00.0,31.0,23.8,09.9,0000.0,0000.42,0002.46,0000.21
2023-02-27 20:04:00,,0816.0,5.00,0.00,22.2,20.5,00.0,31.0,23.8,09.9,0000.0,0000.42,0001.77,0000.21
2023-02-27 20:05:00,,0815.5,5.00,0.00,22.2,20.5,00.0,31.0,23.8,09.7,0000.0,0000.45,0001.36,0000.21
2023-02-27 20:06:00,,0816.1,4.99,0.00,22.2,20.5,00.0,31.0,23.8,09.3,0000.0,0000.46,0001.37,0000.21
2023-02-27 20:07:00,,0815.9,5.00,0.00,22.1,20.5,00.0,31.0,23.8,09.5,0000.0,0000.47,0001.41,0000.22
2023-02-27 20:08:00,,0816.0,5.00,0.00,22.1,20.5,00.0,31.0,23.7,09.5,0000.0,0000.46,0001.38,0000.22
2023-02-27 20:09:00,,0815.8,5.01,0.00,22.1,20.4,00.0,30.9,23.7,09.6,0000.0,0000.48,0001.63,0000.23
2023-02-27 20:10:00,,0815.8,5.00,0.00,22.1,20.4,00.0,30.9,23.7,10.0,0000.0,0000.52,0001.87,0000.23
2023-02-27 20:11:00,,0815.8,4.99,0.00,22.1,20.4,00.0,30.9,23.7,09.8,0000.0,0000.53,0001.85,0000.23
2023-02-27 20:12:00,,0816.1,5.00,0.00,22.1,21.4,00.0,30.9,24.0,09.6,0000.0,0000.53,0001.59,0000.23
2023-02-27 20:13:00,,0815.6,5.04,0.00,22.3,22.6,00.0,30.9,24.3,09.8,0000.0,0000.51,0001.54,0000.24
2023-02-27 20:14:00,,0815.5,4.98,0.00,22.4,22.6,00.0,31.0,24.3,09.6,0000.0,0000.53,0001.66,0000.24
2023-02-27 20:15:00,,0815.6,5.00,0.00,22.4,22.1,00.0,31.0,24.3,09.5,0000.0,0000.51,0001.63,0000.24
2023-02-27 20:16:00,,0815.8,4.99,0.00,22.4,21.8,00.0,31.0,24.1,09.5,0000.0,0000.49,0001.57,0000.25
2023-02-27 20:17:00,,0816.0,5.00,0.00,22.4,21.5,00.0,31.0,24.1,09.4,0000.0,0000.48,0001.57,0000.25
2023-02-27 20:18:00,,0815.9,5.02,0.00,22.4,21.3,00.0,31.0,24.0,09.3,0000.0,0000.49,0001.59,0000.25
2023-02-27 20:19:00,,0815.4,5.00,0.00,22.3,21.2,00.0,31.0,24.0,09.5,0000.0,0000.51,0001.68,0000.25
2023-02-27 20:20:00,,0815.4,5.00,0.00,22.3,21.0,00.0,31.0,24.0,09.6,0000.0,0000.49,0001.39,0000.24
2023-02-27 20:21:00,,0815.4,5.01,0.00,22.3,20.9,00.0,31.0,23.9,09.7,0000.0,0000.45,0001.10,0000.24
2023-02-27 20:22:00,,0815.3,5.02,0.00,22.3,20.8,00.0,31.0,23.9,09.5,0000.0,0000.46,0001.08,0000.24
2023-02-27 20:23:00,,0815.5,5.01,0.00,22.3,20.8,00.0,31.0,23.9,09.7,0000.0,0000.48,0002.03,0000.25
2023-02-27 20:24:00,,0815.8,5.01,0.00,22.2,20.7,00.0,31.0,23.9,09.9,0000.0,0000.49,0002.25,0000.25
2023-02-27 20:25:00,,0815.8,5.00,0.00,22.2,20.7,00.0,31.0,23.9,09.3,0000.0,0000.46,0002.24,0000.24
2023-02-27 20:26:00,,0815.5,5.00,0.00,22.2,20.6,00.0,31.0,23.9,09.8,0000.0,0000.47,0002.26,0000.24
2023-02-27 20:27:00,,0815.4,5.00,0.00,22.2,20.6,00.0,31.0,23.9,09.8,0000.0,0000.51,0002.34,0000.25
2023-02-27 20:28:00,,0815.2,5.00,0.00,22.2,20.6,00.0,31.0,23.8,09.8,0000.0,0000.54,0002.38,0000.25
2023-02-27 20:29:00,,0815.3,4.99,0.00,22.2,20.5,00.0,31.0,23.8,09.6,0000.0,0000.55,0002.40,0000.26
2023-02-27 20:30:00,,0815.4,5.00,0.00,22.1,20.5,00.0,30.9,23.8,09.3,0000.0,0000.55,0002.39,0000.26
2023-02-27 20:31:00,,0815.4,5.01,0.00,22.1,20.5,00.0,30.9,23.8,09.7,0000.0,0000.54,0002.34,0000.27
2023-02-27 20:32:00,,0815.4,5.01,0.00,22.1,20.5,00.0,30.9,23.8,09.6,0000.0,0000.52,0002.33,0000.26
2023-02-27 20:33:00,,0815.4,4.99,0.00,22.1,20.5,00.0,30.9,23.8,09.7,0000.0,0000.50,0002.27,0000.26
2023-02-27 20:34:00,,0815.4,4.99,0.00,22.1,20.5,00.0,30.9,23.8,09.8,0000.0,0000.48,0001.37,0000.25
2023-02-27 20:35:00,,0815.5,4.99,0.00,22.1,20.4,00.0,30.9,23.7,09.2,0000.0,0000.50,0001.20,0000.25
2023-02-27 20:36:00,,0815.3,4.99,0.00,22.1,20.4,00.0,30.9,23.7,09.5,0000.0,0000.51,0001.11,0000.26
2023-02-27 20:37:00,,0815.4,5.00,0.00,22.0,20.4,00.0,30.8,23.7,09.4,0000.0,0000.51,0001.08,0000.26
2023-02-27 20:38:00,,0815.4,5.00,0.00,22.0,20.4,00.0,30.8,23.7,09.7,0000.0,0000.46,0001.00,0000.25
2023-02-27 20:39:00,,0815.3,5.01,0.00,22.0,20.7,00.0,30.8,23.8,09.8,0000.0,0000.45,0002.16,0000.24
2023-02-27 20:40:00,,0815.1,5.02,0.00,22.1,21.8,00.0,30.8,24.1,09.3,0000.0,0000.44,0002.32,0000.24
2023-02-27 20:41:00,,0815.3,5.05,0.00,22.3,22.9,00.0,30.8,24.4,09.2,0000.0,0000.43,0002.27,0000.24
2023-02-27 20:42:00,,0815.3,5.00,0.00,22.4,23.1,00.0,30.9,24.5,09.1,0000.0,0000.46,0002.33,0000.24
2023-02-27 20:43:00,,0815.2,5.00,0.00,22.4,22.6,00.0,30.9,24.4,09.4,0000.0,0000.47,0002.31,0000.24
2023-02-27 20:44:00,,0815.2,5.00,0.00,22.5,22.2,00.0,31.0,24.3,09.4,0000.0,0000.49,0002.76,0000.25
2023-02-27 20:45:00,,0815.2,4.97,0.00,22.5,21.9,00.0,31.0,24.3,09.2,0000.0,0000.52,0002.84,0000.25
2023-02-27 20:46:00,,0815.2,5.00,0.00,22.5,21.7,00.0,31.0,24.2,09.0,0000.0,0000.50,0002.83,0000.25
2023-02-27 20:47:00,,0815.2,5.00,0.00,22.4,21.5,00.0,31.1,24.2,09.1,0000.0,0000.48,0002.79,0000.25
2023-02-27 20:48:00,,0815.2,5.00,0.00,22.4,21.3,00.0,31.1,24.1,09.1,0000.0,0000.48,0002.81,0000.25
2023-02-27 20:49:00,,0815.2,5.00,0.00,22.4,21.2,00.0,31.1,24.1,09.1,0000.0,0000.49,0002.82,0000.25
2023-02-27 20:50:00,,0815.3,5.01,0.00,22.4,21.1,00.0,31.1,24.1,09.1,0000.0,0000.47,0001.64,0000.24
2023-02-27 20:51:00,,0815.3,5.00,0.00,22.4,21.0,00.0,31.1,24.0,09.0,0000.0,0000.50,0001.51,0000.24
2023-02-27 20:52:00,,0815.3,5.01,0.00,22.4,20.9,00.0,31.1,24.0,09.0,0000.0,0000.55,0001.70,0000.24
2023-02-27 20:53:00,,0815.2,5.00,0.00,22.3,20.9,00.0,31.1,24.0,09.1,0000.0,0000.52,0001.66,0000.24
2023-02-27 20:54:00,,0815.1,5.00,0.00,22.3,20.8,00.0,31.1,23.9,09.0,0000.0,0000.50,0001.62,0000.24
2023-02-27 20:55:00,,0815.2,5.01,0.00,22.3,20.8,00.0,31.0,23.9,09.0,0000.0,0000.48,0001.22,0000.24
2023-02-27 20:56:00,,0815.2,4.99,0.00,22.3,20.8,00.0,31.0,23.9,09.3,0000.0,0000.45,0000.99,0000.24
2023-02-27 20:57:00,,0815.2,5.00,0.00,22.3,20.7,00.0,31.0,23.9,09.4,0000.0,0000.45,0000.91,0000.24
2023-02-27 20:58:00,,0815.1,5.01,0.00,22.2,20.7,00.0,31.0,23.9,09.4,0000.0,0000.45,0000.93,0000.24
2023-02-27 20:59:00,,0815.1,5.01,0.00,22.2,20.6,00.0,31.0,23.8,09.5,0000.0,0000.46,0001.02,0000.24
